FW7205 Weather Reports


time (UTC)temp
F
wind
direction
speed
knots
gust
knots
rain 1hr
in
rain 24hr
in
rain mn
in
humidity
%
barometer
mb
20220525140102 61 0 0.9 5.2 0.00 2.53 0.24 95 1009.3
20220525135552 61 157 1.7 7.8 0.00 2.53 0.24 95 1009.1
20220525135052 61 281 1.7 7.8 0.00 2.53 0.24 95 1009.0
20220525134603 61 287 1.7 6.1 0.00 2.53 0.24 95 1008.9
20220525134050 61 308 1.7 8.7 0.00 2.53 0.24 95 1008.9
20220525133553 62 98 1.7 8.7 0.00 2.53 0.24 95 1008.9
20220525133104 62 210 1.7 7.0 0.00 2.53 0.24 95 1008.8
20220525132638 62 313 1.7 7.0 0.00 2.53 0.24 95 1008.6
20220525132056 62 305 0.9 4.3 0.00 2.53 0.24 95 1008.3
20220525131558 62 0 0.0 3.5 0.00 2.53 0.24 95 1008.2
20220525131055 62 0 0.9 3.5 0.00 2.53 0.24 95 1008.1
20220525130553 62 0 0.9 4.3 0.00 2.53 0.24 95 1008.0
20220525130105 62 0 0.0 4.3 0.00 2.53 0.24 95 1007.9
20220525125554 62 299 0.0 2.6 0.00 2.54 0.24 95 1007.9
20220525125054 62 298 0.0 2.6 0.00 2.54 0.24 95 1007.7
20220525124559 62 0 0.0 2.6 0.00 2.54 0.24 95 1007.7
20220525124059 62 288 0.0 5.2 0.00 2.54 0.24 95 1007.8
20220525123559 62 0 0.0 6.1 0.00 2.54 0.24 95 1007.6
20220525123101 62 0 0.9 6.1 0.00 2.54 0.24 95 1007.7
20220525122559 62 212 0.0 3.5 0.00 2.54 0.24 95 1007.6
20220525122053 62 161 0.0 3.5 0.00 2.54 0.24 95 1007.7
20220525121559 61 157 0.0 2.6 0.00 2.54 0.24 95 1007.7
20220525121054 61 284 0.0 2.6 0.00 2.54 0.24 95 1007.7
20220525120556 61 0 0.0 3.5 0.00 2.54 0.24 95 1007.6
20220525120059 61 0 0.0 3.5 0.00 2.54 0.24 95 1007.7
20220525115554 61 0 0.0 1.7 0.00 2.54 0.24 95 1007.6
20220525115056 61 0 0.0 1.7 0.00 2.54 0.24 95 1007.5
20220525114558 61 0 0.0 1.7 0.00 2.54 0.24 95 1007.6
20220525114059 61 0 0.0 1.7 0.00 2.54 0.24 95 1007.7
20220525113559 61 0 0.0 1.7 0.00 2.54 0.24 95 1007.6
20220525113057 61 0 0.0 1.7 0.00 2.54 0.24 95 1007.4
20220525112555 61 0 0.0 1.7 0.00 2.54 0.24 95 1007.2
20220525112055 61 0 0.0 1.7 0.00 2.54 0.24 95 1007.0
20220525111603 61 0 0.0 0.9 0.00 2.54 0.24 95 1007.1
20220525111052 61 0 0.0 1.7 0.00 2.54 0.24 95 1007.1
20220525110552 61 0 0.0 3.5 0.00 2.54 0.24 95 1007.0
20220525110101 61 0 0.0 3.5 0.00 2.54 0.24 95 1006.8
20220525105558 61 165 0.0 0.9 0.00 2.54 0.24 95 1006.8
20220525105055 61 0 0.0 1.7 0.00 2.54 0.24 95 1006.8
20220525104558 61 0 0.0 1.7 0.00 2.54 0.24 95 1006.7
20220525104058 61 0 0.0 1.7 0.00 2.54 0.24 95 1006.6
20220525103554 61 0 0.0 1.7 0.00 2.54 0.24 95 1006.4
20220525103101 61 0 0.0 0.9 0.00 2.54 0.24 95 1006.2
20220525102602 61 0 0.0 1.7 0.00 2.54 0.24 95 1006.2
20220525102054 61 165 0.0 1.7 0.00 2.54 0.24 95 1006.2
20220525101601 61 0 0.0 1.7 0.00 2.54 0.24 95 1006.2
20220525101053 61 0 0.0 1.7 0.00 2.54 0.24 95 1006.1
20220525100556 61 0 0.0 0.9 0.00 2.54 0.24 95 1005.9
20220525100100 61 0 0.0 3.5 0.00 2.54 0.24 95 1005.9
20220525095552 61 0 0.0 3.5 0.00 2.54 0.24 95 1005.8
20220525095055 61 165 0.0 1.7 0.00 2.54 0.24 95 1005.7
20220525094605 61 0 0.0 0.9 0.00 2.54 0.24 95 1005.7
20220525094056 61 0 0.0 1.7 0.00 2.54 0.24 95 1005.8
20220525093557 61 0 0.0 1.7 0.00 2.54 0.24 95 1006.0
20220525093114 61 165 0.0 3.5 0.00 2.54 0.24 95 1005.9
20220525092555 61 0 0.0 3.5 0.00 2.54 0.24 95 1006.1
20220525092055 61 0 0.0 3.5 0.00 2.54 0.24 95 1006.4
20220525091608 61 169 0.0 3.5 0.00 2.54 0.24 95 1006.2
20220525091055 61 0 0.0 7.0 0.00 2.54 0.24 95 1006.1
20220525090554 61 0 0.9 7.0 0.01 2.54 0.24 95 1005.7
20220525090109 61 157 1.7 8.7 0.01 2.54 0.24 95 1006.0
20220525085555 61 172 2.6 8.7 0.01 2.54 0.24 95 1006.1
20220525085055 61 142 1.7 5.2 0.01 2.54 0.24 95 1005.6
20220525084603 61 199 1.7 13.0 0.01 2.54 0.24 95 1005.2
20220525084056 61 196 3.5 13.0 0.01 2.54 0.24 95 1003.2
20220525083553 61 47 3.5 9.6 0.01 2.54 0.24 94 1002.3
20220525083101 61 57 2.6 9.6 0.01 2.54 0.24 94 1005.1
20220525082555 61 239 3.5 8.7 0.01 2.54 0.24 94 1005.4
20220525082055 61 155 2.6 7.8 0.01 2.54 0.24 94 1005.0
20220525081603 61 42 2.6 7.8 0.01 2.54 0.24 94 1006.0
20220525081051 61 199 2.6 7.0 0.01 2.54 0.24 95 1006.7
20220525080554 61 113 0.9 3.5 0.00 2.53 0.23 94 1007.0
20220525080108 61 221 0.9 6.1 0.00 2.53 0.23 94 1007.9
20220525075559 61 136 1.7 7.0 0.00 2.53 0.23 94 1008.0
20220525075055 62 214 1.7 7.0 0.00 2.53 0.23 94 1006.6
20220525074601 62 0 0.0 4.3 0.00 2.53 0.23 94 1007.4
20220525074054 62 0 0.0 4.3 0.00 2.53 0.23 95 1006.0
20220525073554 62 0 0.9 4.3 0.01 2.53 0.23 95 1007.6
20220525073102 62 161 0.0 3.5 0.01 2.53 0.23 95 1007.1
20220525072555 62 151 0.0 3.5 0.01 2.53 0.23 94 1006.8
20220525072057 62 94 0.9 3.5 0.02 2.53 0.23 94 1006.6
20220525071608 62 0 0.0 2.6 0.02 2.53 0.23 94 1006.4
20220525071054 62 0 0.0 1.7 0.03 2.53 0.23 94 1006.1
20220525070555 62 0 0.0 2.6 0.04 2.53 0.23 94 1006.3
20220525070108 62 0 0.0 2.6 0.06 2.53 0.23 94 1005.6
20220525065554 62 0 0.0 4.3 0.07 2.53 0.23 94 1005.5
20220525065052 62 0 0.0 6.1 0.09 2.53 0.23 94 1005.6
20220525064606 62 54 2.6 6.1 0.11 2.53 0.23 94 1004.8
20220525064054 62 67 1.7 3.5 0.13 2.53 0.23 94 1004.5
20220525063554 62 52 0.9 3.5 0.14 2.52 0.22 94 1005.5
20220525063106 62 95 0.9 3.5 0.15 2.52 0.22 94 1005.5
20220525062554 62 101 0.0 3.5 0.17 2.52 0.22 94 1006.0
20220525062102 62 101 0.9 3.5 0.18 2.51 0.21 94 1006.4
20220525061607 63 0 0.9 3.5 0.19 2.51 0.21 94 1006.4
20220525061058 63 171 0.0 1.7 0.19 2.50 0.20 94 1006.8
20220525060556 63 0 0.0 0.9 0.19 2.49 0.19 94 1007.6
20220525060106 63 0 0.0 0.9 0.17 2.47 0.17 94 1008.0
20220525055555 63 0 0.0 2.6 0.15 2.45 0.15 94 1008.6
20220525055055 63 0 0.0 3.5 0.14 2.44 0.14 94 1008.8
20220525054604 63 214 0.0 3.5 0.12 2.42 0.12 94 1009.1
20220525054054 63 196 0.9 2.6 0.10 2.40 0.10 94 1009.2
20220525053553 63 192 0.0 1.7 0.09 2.38 0.08 94 1009.4
20220525053100 63 0 0.0 2.6 0.09 2.36 0.07 94 1009.2
20220525052554 63 173 0.0 2.6 0.09 2.34 0.05 94 1009.4
20220525052054 62 260 0.0 2.6 0.09 2.33 0.03 94 1009.4
20220525051602 63 0 0.0 2.6 0.11 2.32 0.02 94 1009.4
20220525051052 62 198 0.0 2.6 0.12 2.31 0.01 94 1009.3
20220525050552 62 147 0.0 1.7 0.13 2.30 0.00 94 1008.9
20220525050101 62 0 0.0 1.7 0.14 2.30 0.00 94 1008.5
20220525045554 62 0 0.0 1.7 0.15 2.30 2.30 94 1007.7
20220525045052 63 0 0.0 1.7 0.16 2.30 2.30 94 1007.7
20220525044601 63 0 0.0 2.6 0.18 2.30 2.30 94 1008.1
20220525044056 63 0 0.0 2.6 0.19 2.30 2.30 94 1008.5
20220525043555 63 68 0.0 1.7 0.18 2.29 2.29 94 1008.7
20220525043059 63 0 0.0 2.6 0.17 2.28 2.28 94 1008.8
20220525042602 63 0 0.9 3.5 0.16 2.26 2.26 93 1008.4
20220525042054 63 78 0.9 3.5 0.15 2.24 2.24 94 1008.5
20220525041556 62 80 0.0 1.7 0.12 2.21 2.21 94 1008.6
20220525041057 62 68 0.0 3.5 0.10 2.19 2.19 93 1008.7
20220525040554 62 86 0.9 3.5 0.08 2.17 2.17 93 1008.7
20220525040110 62 57 1.7 3.5 0.07 2.16 2.16 93 1008.5
20220525035553 62 55 0.0 2.6 0.07 2.15 2.15 93 1008.7
20220525035054 62 0 0.0 1.7 0.06 2.14 2.14 93 1008.9
20220525034601 62 0 0.0 1.7 0.05 2.11 2.11 93 1009.0
20220525034053 62 55 0.0 1.7 0.06 2.10 2.10 93 1008.9
20220525033552 62 55 0.0 1.7 0.08 2.10 2.10 93 1008.9
20220525033113 62 0 0.0 1.7 0.10 2.10 2.10 93 1008.8
20220525032553 62 55 0.0 1.7 0.12 2.09 2.09 93 1008.5
20220525032054 62 55 0.9 1.7 0.16 2.08 2.08 93 1008.6
20220525031609 63 0 0.0 3.5 0.32 2.08 2.08 93 1009.4
20220525031055 63 0 0.9 3.5 0.62 2.08 2.08 93 1009.7
20220525030554 63 71 0.0 2.6 0.90 2.08 2.08 93 1009.4
20220525030112 63 70 0.9 2.6 0.93 2.08 2.08 93 1009.2
20220525025552 63 0 0.0 2.6 0.92 2.08 2.08 93 1009.2
20220525025057 63 69 0.0 1.7 0.93 2.08 2.08 93 1009.3
20220525024604 63 84 0.9 2.6 0.94 2.06 2.06 93 1009.5
20220525024053 63 87 0.9 2.6 0.99 2.05 2.05 92 1009.6
20220525023557 63 66 0.9 2.6 1.14 2.03 2.03 92 1009.8
20220525023107 63 0 0.9 2.6 1.16 2.01 2.01 92 1010.4
20220525022600 63 196 0.0 3.5 1.16 1.98 1.98 92 1010.1
20220525022100 63 309 0.9 6.1 1.11 1.93 1.93 92 1010.4
20220525021611 63 281 0.9 7.0 0.94 1.76 1.76 92 1010.8
20220525021055 63 5 1.7 7.0 0.64 1.46 1.46 92 1010.4
20220525020556 63 279 1.7 7.0 0.37 1.19 1.19 92 1010.7
20220525020107 63 333 1.7 7.0 0.38 1.16 1.16 91 1008.9
20220525015551 63 53 2.6 6.1 0.40 1.16 1.16 91 1007.7
20220525015056 63 98 2.6 6.1 0.40 1.15 1.15 91 1007.8
20220525014605 64 30 2.6 5.2 0.39 1.12 1.12 91 1007.9
20220525014050 64 47 1.7 7.0 0.36 1.04 1.04 90 1007.9
20220525013554 64 78 1.7 7.0 0.35 0.88 0.88 90 1007.8
20220525013110 64 69 1.7 9.6 0.39 0.84 0.84 89 1007.1
20220525012554 64 82 2.6 9.6 0.52 0.82 0.82 89 1007.0
20220525012054 64 112 3.5 8.7 0.75 0.82 0.82 88 1006.9
20220525011608 65 107 2.6 7.0 0.79 0.82 0.82 88 1006.7
20220525011054 65 29 3.5 7.0 0.80 0.82 0.82 87 1006.8
20220525010552 66 24 1.7 7.8 0.80 0.82 0.82 87 1006.7
20220525010110 67 355 2.6 7.8 0.76 0.78 0.78 86 1006.6
20220525005554 67 41 1.7 6.1 0.73 0.75 0.75 85 1007.0
20220525005056 68 92 0.9 4.3 0.73 0.75 0.75 84 1007.3
20220525004603 69 35 0.9 3.5 0.70 0.72 0.72 83 1006.7
20220525004053 69 332 0.0 2.6 0.67 0.69 0.69 83 1006.5
20220525003552 70 267 0.0 5.2 0.50 0.52 0.52 81 1006.4
20220525003113 71 0 0.9 7.8 0.42 0.44 0.44 80 1006.1
20220525002553 72 0 1.7 8.7 0.27 0.29 0.29 78 1006.0
20220525002054 73 325 2.6 12.2 0.04 0.06 0.06 75 1005.9
20220525001609 73 281 3.5 12.2 0.01 0.03 0.03 73 1005.6
20220525001101 74 72 1.7 4.3 0.00 0.02 0.02 72 1005.3
20220525000555 74 355 0.9 4.3 0.00 0.02 0.02 72 1005.3
20220525000115 74 347 1.7 4.3 0.00 0.02 0.02 72 1005.2
20220524235555 74 59 0.9 4.3 0.00 0.02 0.02 72 1005.0
20220524235057 74 82 0.9 4.3 0.00 0.02 0.02 71 1004.7
20220524234615 74 42 1.7 6.1 0.00 0.02 0.02 72 1004.7
20220524234054 74 106 1.7 6.1 0.00 0.02 0.02 72 1004.8
20220524233552 75 103 2.6 6.1 0.00 0.02 0.02 71 1005.0
20220524233112 75 61 2.6 6.1 0.00 0.02 0.02 70 1005.1
20220524232558 76 34 2.6 6.1 0.00 0.02 0.02 70 1005.2
20220524232050 76 42 1.7 7.0 0.00 0.02 0.02 70 1005.0
20220524231625 77 69 1.7 7.0 0.00 0.02 0.02 70 1004.7
20220524231052 77 52 2.6 7.0 0.00 0.02 0.02 69 1004.6
20220524230552 77 342 1.7 7.0 0.00 0.02 0.02 68 1004.6
20220524230107 77 82 2.6 7.0 0.00 0.02 0.02 68 1004.6
20220524225555 77 81 1.7 5.2 0.00 0.02 0.02 68 1004.5
20220524225052 77 11 1.7 8.7 0.00 0.02 0.02 69 1004.7
20220524224602 77 79 1.7 8.7 0.00 0.02 0.02 69 1004.8
20220524224054 77 90 2.6 7.8 0.00 0.02 0.02 67 1004.8
20220524223553 78 9 3.5 7.8 0.00 0.02 0.02 67 1004.7
20220524223111 78 69 1.7 7.0 0.00 0.02 0.02 66 1004.6
20220524222554 78 29 2.6 7.0 0.00 0.02 0.02 66 1004.9
20220524222053 79 63 2.6 7.8 0.00 0.02 0.02 66 1004.9
20220524221603 79 46 2.6 7.8 0.00 0.02 0.02 65 1005.0
20220524221052 78 111 1.7 7.0 0.00 0.02 0.02 66 1005.2
20220524220551 77 5 1.7 7.0 0.00 0.02 0.02 67 1005.3
20220524220112 77 348 1.7 7.0 0.00 0.02 0.02 67 1005.3
20220524215552 78 352 1.7 7.0 0.00 0.02 0.02 66 1005.5
20220524215054 77 10 2.6 5.2 0.00 0.02 0.02 66 1005.8
20220524214605 78 11 0.9 3.5 0.00 0.02 0.02 66 1006.0
20220524214051 77 88 0.9 7.0 0.00 0.02 0.02 67 1006.0
20220524213551 78 14 2.6 7.0 0.00 0.02 0.02 67 1006.1
20220524213112 78 10 1.7 4.3 0.00 0.02 0.02 67 1006.2
20220524212553 77 49 1.7 4.3 0.00 0.02 0.02 68 1006.2
20220524212055 77 28 1.7 7.0 0.00 0.02 0.02 68 1006.3
20220524211607 78 36 1.7 7.0 0.00 0.02 0.02 67 1006.4
20220524211053 78 15 1.7 5.2 0.00 0.02 0.02 66 1006.3
20220524210552 78 13 1.7 5.2 0.00 0.02 0.02 67 1006.4
20220524210107 79 21 0.9 4.3 0.00 0.02 0.02 67 1006.5
20220524205553 78 14 0.9 4.3 0.00 0.02 0.02 69 1006.4
20220524205052 78 13 1.7 4.3 0.00 0.02 0.02 68 1006.6
20220524204616 78 355 0.9 5.2 0.00 0.02 0.02 67 1006.7
20220524204053 78 5 1.7 5.2 0.00 0.02 0.02 67 1006.7
20220524203552 77 89 1.7 5.2 0.00 0.02 0.02 68 1006.7
20220524203123 78 323 1.7 6.1 0.00 0.02 0.02 69 1006.9
20220524202551 76 11 1.7 6.1 0.00 0.02 0.02 70 1006.9
20220524202052 76 346 1.7 7.0 0.00 0.02 0.02 71 1007.0
20220524201609 75 83 2.6 7.0 0.00 0.02 0.02 72 1007.0
20220524201053 75 32 2.6 7.0 0.00 0.02 0.02 71 1007.1
20220524200551 75 83 2.6 7.0 0.00 0.02 0.02 72 1007.1
20220524200121 74 30 1.7 5.2 0.00 0.02 0.02 75 1007.2
20220524195554 73 33 2.6 5.2 0.00 0.02 0.02 74 1007.4
20220524195052 74 89 0.9 7.8 0.00 0.02 0.02 74 1007.7
20220524194612 73 360 1.7 7.8 0.00 0.02 0.02 75 1007.9
20220524194052 73 341 1.7 8.7 0.00 0.02 0.02 77 1007.9
20220524193553 72 360 3.5 8.7 0.00 0.02 0.02 76 1008.1
20220524193058 71 19 2.6 6.1 0.00 0.02 0.02 80 1008.3
20220524192551 70 13 1.7 7.8 0.00 0.02 0.02 83 1008.1
20220524192051 69 347 2.6 7.8 0.00 0.02 0.02 84 1008.5
20220524191559 69 46 1.7 7.0 0.00 0.02 0.02 83 1008.6
20220524191051 69 350 2.6 6.1 0.00 0.02 0.02 84 1008.8
20220524190554 69 14 1.7 4.3 0.00 0.02 0.02 85 1008.7
20220524190107 69 20 1.7 7.8 0.00 0.02 0.02 86 1008.8
20220524185559 68 355 2.6 7.8 0.00 0.02 0.02 86 1008.8
20220524185056 68 29 2.6 6.1 0.00 0.02 0.02 86 1008.8
20220524184609 67 13 1.7 4.3 0.00 0.02 0.02 86 1008.8
20220524184050 67 348 0.9 4.3 0.00 0.02 0.02 86 1008.9
20220524183601 68 32 1.7 5.2 0.00 0.02 0.02 84 1008.9
20220524183109 68 329 1.7 7.0 0.01 0.02 0.02 83 1009.0
20220524182554 68 0 1.7 7.0 0.01 0.02 0.02 83 1008.9
20220524182055 68 13 2.6 7.0 0.01 0.02 0.02 82 1008.8
20220524181603 69 9 1.7 7.0 0.01 0.02 0.02 81 1009.0
20220524181051 70 360 1.7 8.7 0.01 0.02 0.02 79 1009.0
20220524180557 72 28 3.5 8.7 0.01 0.02 0.02 77 1009.1
20220524180110 74 336 2.6 8.7 0.01 0.02 0.02 74 1008.9
20220524175554 77 306 2.6 8.7 0.01 0.02 0.02 76 1009.1
20220524175052 78 0 0.9 3.5 0.01 0.02 0.02 81 1008.6
20220524174608 78 0 0.9 4.3 0.01 0.02 0.02 81 1008.5
20220524174052 77 194 0.0 4.3 0.01 0.02 0.02 84 1008.7
20220524173555 75 0 0.9 4.3 0.01 0.02 0.02 86 1008.8
20220524173107 74 0 0.9 3.5 0.00 0.01 0.01 87 1008.8
20220524172553 74 200 0.9 2.6 0.00 0.01 0.01 85 1008.9
20220524172055 74 178 0.0 4.3 0.00 0.01 0.01 84 1009.0
20220524171607 74 198 0.9 4.3 0.00 0.01 0.01 82 1009.0
20220524171056 74 111 0.9 2.6 0.00 0.01 0.01 81 1009.0
20220524170551 74 218 0.0 2.6 0.00 0.01 0.01 81 1009.0
20220524170054 74 150 0.0 3.5 0.00 0.01 0.01 81 1009.0
20220524165554 74 0 0.9 3.5 0.00 0.01 0.01 82 1008.9
20220524165055 74 80 0.9 3.5 0.00 0.01 0.01 81 1008.9
20220524164602 74 209 1.7 4.3 0.00 0.01 0.01 81 1008.9
20220524164054 74 0 1.7 4.3 0.00 0.01 0.01 81 1008.9
20220524163552 74 175 0.0 7.0 0.00 0.01 0.01 81 1008.9
20220524163102 74 0 0.9 7.0 0.00 0.01 0.01 81 1008.9
20220524162550 74 124 0.9 3.5 0.00 0.01 0.01 81 1008.8
20220524162054 74 209 0.9 3.5 0.00 0.01 0.01 81 1008.8
20220524161557 74 142 0.9 3.5 0.00 0.01 0.01 81 1008.8
20220524161053 74 109 0.9 3.5 0.00 0.01 0.01 81 1008.9
20220524160552 74 165 0.9 7.0 0.00 0.01 0.01 81 1009.0
20220524160106 74 0 1.7 7.0 0.00 0.01 0.01 81 1009.1
20220524155553 74 159 0.0 4.3 0.00 0.02 0.01 81 1009.0
20220524155053 74 114 0.9 5.2 0.00 0.02 0.01 82 1009.0
20220524154613 73 234 0.9 6.1 0.00 0.02 0.01 83 1009.1
20220524154055 73 149 1.7 7.0 0.00 0.02 0.01 83 1009.1
20220524153552 73 207 2.6 7.0 0.00 0.02 0.01 84 1009.0
20220524153105 72 86 1.7 4.3 0.00 0.02 0.01 86 1009.1
20220524152552 71 126 0.9 4.3 0.00 0.02 0.01 87 1009.2
20220524152051 71 0 0.9 4.3 0.00 0.02 0.01 88 1009.1
20220524151601 70 63 0.9 3.5 0.00 0.02 0.01 87 1009.3
20220524151052 70 80 0.9 4.3 0.00 0.02 0.01 87 1009.4
20220524150551 70 191 1.7 5.2 0.00 0.02 0.01 87 1009.4
20220524150058 70 84 0.9 7.0 0.00 0.02 0.01 87 1009.6
20220524145551 70 140 0.9 7.8 0.00 0.02 0.01 88 1009.6
20220524145056 70 169 1.7 7.8 0.00 0.02 0.01 88 1009.7
20220524144605 70 200 0.9 7.0 0.00 0.02 0.01 88 1009.6
20220524144051 70 59 1.7 7.0 0.00 0.02 0.01 89 1009.4
20220524143600 70 49 0.0 5.2 0.00 0.02 0.01 89 1009.4
20220524143109 70 52 0.9 5.2 0.00 0.02 0.01 89 1009.3
20220524142554 70 126 0.9 4.3 0.00 0.02 0.01 89 1009.4
20220524142050 69 93 0.9 4.3 0.00 0.02 0.01 90 1009.3
20220524141558 69 51 0.9 5.2 0.00 0.02 0.01 90 1009.1
20220524141052 69 123 0.9 6.1 0.00 0.02 0.01 90 1009.2
20220524140553 69 159 0.9 6.1 0.00 0.02 0.01 90 1009.2